Regional Weather Roundup
Issued by NWS Sioux Falls, SD

Home | Current Version | Previous Version | Text Only | Print | Product List | Glossary Off
Versions: 1 2 3 4 5 6 7 8 9 10 11 12 13 14 15 16 17 18 19 20 21 22 23 24 25 26 27 28 29 30 31 32 33 34 35 36 37 38 39 40 41 42 43 44 45 46 47 48 49 50

665
ASUS43 KFSD 161210
RWRFSD

WEATHER ROUNDUP FOR SE SOUTH DAKOTA/SW MINNESOTA/NW IOWA
NATIONAL WEATHER SERVICE SIOUX FALLS SD
600 AM CST SAT DEC 16 2017

NOTE: "FAIR" INDICATES FEW OR NO CLOUDS BELOW 12,000 FEET WITH NO
SIGNIFICANT WEATHER AND OR OBSTRUCTIONS TO VISIBILITY.


SDZ038>040-050-052>070-161300-
SOUTHEAST SOUTH DAKOTA

CITY           SKY/WX    TMP DP  RH WIND       PRES   REMARKS
BROOKINGS      CLOUDY    29  25  85 CALM      29.70R
CHAMBERLAIN    CLEAR     34  25  70 CALM      29.75R
6HR MIN TEMP:  32; 6HR MAX TEMP:  41;

HURON          CLOUDY    27  23  85 NW8       29.74R WCI  19
6HR MIN TEMP:  27; 6HR MAX TEMP:  36;

MADISON        FAIR      28  28 100 NW9       29.70R WCI  20
MITCHELL       PTCLDY    29  24  82 NW8       29.73R WCI  21
6HR MIN TEMP:  29; 6HR MAX TEMP:  40;

SIOUX FALLS    CLOUDY    33  26  75 NW6       29.70R WCI  28
6HR MIN TEMP:  28; 6HR MAX TEMP:  37;

WINNER         FAIR      34  23  64 W7        29.75R WCI  28
YANKTON        CLOUDY    34  23  64 W5        29.73R WCI  30
$$

MNZ071-072-080-081-089-090-097-098-161300-
SOUTHWEST MINNESOTA

CITY           SKY/WX    TMP DP  RH WIND       PRES   REMARKS
FAIRMONT       CLOUDY    31  26  82 NW6       29.68R WCI  25
JACKSON        CLOUDY    32  27  80 NW8       29.67S WCI  25
LUVERNE        CLOUDY    28  25  86 NW6       29.69R WCI  22
MARSHALL       CLOUDY    30  25  81 W10       29.69R WCI  21
6HR MIN TEMP:  29; 6HR MAX TEMP:  39;

MONTEVIDEO     CLOUDY    28  27  93 CALM      29.69R
PIPESTONE      CLOUDY    28  25  86 CALM      29.69R
REDWOOD FALLS  CLOUDY    28  26  92 NE3       29.68R
WINDOM           N/A     28  18  64 SW6       29.68R WCI  22
WORTHINGTON    CLOUDY    30  25  81 NW9       29.68R WCI  22
$$

IAZ001>003-012>014-020>022-031-032-NEZ013-014-SDZ071-161300-
NORTHWEST IOWA

CITY           SKY/WX    TMP DP  RH WIND       PRES   REMARKS
CHEROKEE       CLOUDY    26  23  90 CALM      29.72R
DENISON        CLOUDY    32  21  64 SW5       29.75R WCI  27
ESTHERVILLE    CLOUDY    28  24  85 NW9       29.67R WCI  19
LE MARS        CLOUDY    27  23  86 S6        29.72R WCI  20
ORANGE CITY    CLOUDY    30  27  86 CALM      29.71R
SHELDON        CLOUDY    23  21  93 CALM      29.69R
SIOUX CITY     CLOUDY    23  19  85 SE3       29.73R
6HR MIN TEMP:  23; 6HR MAX TEMP:  28;

SPENCER        CLOUDY    23  19  85 S5        29.70R WCI  17
6HR MIN TEMP:  22; 6HR MAX TEMP:  36;

STORM LAKE     CLOUDY    28  21  74 SW7       29.71R WCI  21
$$

ABBREVIATIONS USED IN REMARKS
   TC - TEMPERATURE IN CELSIUS
  WCI - WIND CHILL INDEX
   HX - HEAT INDEX
  VSB - VISIBILITY





USA.gov is the U.S. government's official web portal to all federal, state and local government web resources and services.